Location: ????????
(60.4333°N, 46.4710°E)
Time: 19:49:56
(UTC+00:00)

NOSS 3-3 (C) - Pass Details

Date: 25 November 2020
Orbit: 820 x 1392 km, 63.4° (Epoch: 14 January)

Event Time Altitude Azimuth Distance (km) Brightness Sun altitude
Rises 12:48:25 0° 269° (W) 3,620 8.1 -5.3°
Reaches altitude 10° 12:50:51 10° 271° (W) 2,744 7.3 -5.5°
Maximum altitude 12:57:20 70° 356° (N) 1,157 4.3 -6.2°
Drops below altitude 10° 13:04:52 10° 80° (E) 3,165 6.1 -7.0°
Enters shadow 13:06:10 - 82° (E) 3,621 6.4 -7.1°
